• In Portugal
  • List of Countries
  • For 7 days
  • Water Temperature
  • Satellite Maps
  • Weather Map
  • Weather Widgets
  • user-avatar
    Login

    Hourly Weather Lisbon

    Today, 22 January, Monday

    Time Temperature Precipitation Wind Pressure Humidity
    00:00 +12°C° 0 mm 2 mps 769 mmHg 96%
    01:00 +11°C° 0 mm 3 mps 769 mmHg 96%
    02:00 +11°C° 0 mm 3 mps 769 mmHg 96%
    03:00 +11°C° 0 mm 3 mps 769 mmHg 96%
    04:00 +11°C° 0 mm 3 mps 769 mmHg 96%
    05:00 +11°C° 0 mm 3 mps 768 mmHg 95%
    06:00 +12°C° 0 mm 2 mps 768 mmHg 95%
    07:00 +12°C° 0 mm 2 mps 768 mmHg 94%
    08:00 +13°C° 0 mm 2 mps 768 mmHg 94%
    09:00 +13°C° 0 mm 3 mps 768 mmHg 85%
    10:00 +16°C° 0 mm 3 mps 768 mmHg 77%
    11:00 +18°C° 0 mm 3 mps 768 mmHg 68%
    12:00 +18°C° 0 mm 4 mps 768 mmHg 66%
    13:00 +19°C° 0 mm 4 mps 768 mmHg 64%
    14:00 +19°C° 0 mm 5 mps 767 mmHg 62%
    15:00 +18°C° 0 mm 4 mps 767 mmHg 68%
    16:00 +15°C° 0 mm 4 mps 767 mmHg 73%
    17:00 +13°C° 0 mm 4 mps 767 mmHg 79%
    18:00 +13°C° 0 mm 4 mps 767 mmHg 83%
    19:00 +12°C° 0 mm 4 mps 768 mmHg 86%
    20:00 +11°C° 0 mm 4 mps 768 mmHg 90%
    21:00 +11°C° 0 mm 4 mps 768 mmHg 91%
    22:00 +11°C° 0 mm 4 mps 768 mmHg 92%
    23:00 +11°C° 0 mm 4 mps 768 mmHg 93%

    Tomorrow, 23 January, Tuesday

    Time Temperature Precipitation Wind Pressure Humidity
    00:00 +11°C° 0 mm 4 mps 768 mmHg 94%
    01:00 +11°C° 0 mm 4 mps 768 mmHg 94%
    02:00 +10°C° 0 mm 4 mps 767 mmHg 95%
    03:00 +10°C° 0 mm 4 mps 767 mmHg 95%
    04:00 +10°C° 0 mm 4 mps 767 mmHg 95%
    05:00 +10°C° 0 mm 4 mps 767 mmHg 95%
    06:00 +10°C° 0 mm 3 mps 767 mmHg 95%
    07:00 +11°C° 0 mm 3 mps 767 mmHg 94%
    08:00 +11°C° 0 mm 3 mps 767 mmHg 93%
    09:00 +13°C° 0 mm 3 mps 768 mmHg 85%
    10:00 +14°C° 0 mm 3 mps 768 mmHg 77%
    11:00 +17°C° 0 mm 4 mps 768 mmHg 69%
    12:00 +18°C° 0 mm 4 mps 767 mmHg 67%
    13:00 +18°C° 0 mm 4 mps 767 mmHg 65%
    14:00 +19°C° 0 mm 4 mps 766 mmHg 62%
    15:00 +17°C° 0 mm 4 mps 767 mmHg 70%
    16:00 +15°C° 0 mm 4 mps 767 mmHg 77%
    17:00 +13°C° 0 mm 4 mps 767 mmHg 85%
    18:00 +12°C° 0 mm 4 mps 767 mmHg 88%
    19:00 +12°C° 0 mm 4 mps 767 mmHg 91%
    20:00 +11°C° 0 mm 4 mps 767 mmHg 94%
    21:00 +10°C° 0 mm 3 mps 767 mmHg 94%
    22:00 +10°C° 0 mm 3 mps 767 mmHg 95%
    23:00 +10°C° 0 mm 3 mps 767 mmHg 95%

    Day after tomorrow, 24 January, Wednesday

    Time Temperature Precipitation Wind Pressure Humidity
    00:00 +9°C° 0 mm 3 mps 767 mmHg 95%
    01:00 +9°C° 0 mm 3 mps 767 mmHg 95%
    02:00 +9°C° 0 mm 3 mps 766 mmHg 95%
    03:00 +9°C° 0 mm 3 mps 766 mmHg 95%
    04:00 +9°C° 0 mm 2 mps 766 mmHg 95%
    05:00 +9°C° 0 mm 2 mps 766 mmHg 95%
    06:00 +9°C° 0 mm 2 mps 766 mmHg 94%
    07:00 +10°C° 0 mm 2 mps 766 mmHg 94%
    08:00 +11°C° 0 mm 1 mps 767 mmHg 93%
    09:00 +12°C° 0 mm 2 mps 767 mmHg 86%
    10:00 +14°C° 0 mm 2 mps 767 mmHg 79%
    11:00 +15°C° 0 mm 2 mps 767 mmHg 72%
    12:00 +16°C° 0 mm 2 mps 766 mmHg 68%
    13:00 +16°C° 0 mm 2 mps 766 mmHg 64%
    14:00 +17°C° 0 mm 2 mps 765 mmHg 60%
    15:00 +16°C° 0 mm 2 mps 765 mmHg 65%
    16:00 +15°C° 0 mm 2 mps 765 mmHg 71%
    17:00 +12°C° 0 mm 3 mps 765 mmHg 77%
    18:00 +13°C° 0 mm 2 mps 766 mmHg 80%
    19:00 +12°C° 0 mm 2 mps 766 mmHg 83%
    20:00 +12°C° 0 mm 2 mps 766 mmHg 86%
    21:00 +12°C° 0 mm 2 mps 766 mmHg 89%
    22:00 +12°C° 0 mm 2 mps 766 mmHg 91%
    23:00 +12°C° 0 mm 2 mps 766 mmHg 93%

    25 January, Thursday

    Time Temperature Precipitation Wind Pressure Humidity
    00:00 +11°C° 0 mm 3 mps 765 mmHg 94%
    01:00 +11°C° 0 mm 3 mps 765 mmHg 95%
    02:00 +12°C° 0 mm 3 mps 765 mmHg 97%
    03:00 +12°C° 0.2 mm 3 mps 765 mmHg 97%
    04:00 +12°C° 0.2 mm 4 mps 765 mmHg 97%
    05:00 +13°C° 0.2 mm 4 mps 765 mmHg 97%
    06:00 +13°C° 0.2 mm 4 mps 765 mmHg 96%
    07:00 +13°C° 0.2 mm 5 mps 765 mmHg 94%
    08:00 +13°C° 0.2 mm 5 mps 766 mmHg 92%
    09:00 +14°C° 0 mm 5 mps 766 mmHg 84%
    10:00 +14°C° 0 mm 6 mps 766 mmHg 75%
    11:00 +15°C° 0 mm 7 mps 766 mmHg 67%
    12:00 +15°C° 0 mm 7 mps 766 mmHg 65%
    13:00 +14°C° 0 mm 7 mps 765 mmHg 63%
    14:00 +13°C° 0 mm 8 mps 765 mmHg 61%
    15:00 +12°C° 0 mm 7 mps 765 mmHg 63%
    16:00 +11°C° 0 mm 7 mps 766 mmHg 65%
    17:00 +10°C° 0 mm 7 mps 766 mmHg 67%
    18:00 +9°C° 0 mm 6 mps 767 mmHg 69%
    19:00 +9°C° 0 mm 6 mps 767 mmHg 71%
    20:00 +8°C° 0 mm 6 mps 768 mmHg 74%
    21:00 +8°C° 0 mm 6 mps 768 mmHg 74%
    22:00 +7°C° 0 mm 6 mps 768 mmHg 75%
    23:00 +7°C° 0 mm 6 mps 769 mmHg 76%

    26 January, Friday

    Time Temperature Precipitation Wind Pressure Humidity
    00:00 +7°C° 0.1 mm 6 mps 769 mmHg 76%
    01:00 +7°C° 0.1 mm 6 mps 769 mmHg 76%
    02:00 +7°C° 0.1 mm 6 mps 769 mmHg 76%
    03:00 +7°C° 0 mm 6 mps 769 mmHg 77%
    04:00 +5°C° 0 mm 6 mps 769 mmHg 78%
    05:00 +5°C° 0 mm 6 mps 769 mmHg 78%
    06:00 +7°C° 0 mm 6 mps 769 mmHg 77%
    07:00 +7°C° 0 mm 6 mps 770 mmHg 75%
    08:00 +8°C° 0 mm 6 mps 770 mmHg 74%
    09:00 +9°C° 0 mm 7 mps 771 mmHg 66%
    10:00 +11°C° 0 mm 7 mps 771 mmHg 59%
    11:00 +12°C° 0 mm 8 mps 771 mmHg 51%
    12:00 +13°C° 0 mm 8 mps 771 mmHg 50%
    13:00 +13°C° 0 mm 8 mps 771 mmHg 49%
    14:00 +13°C° 0 mm 8 mps 770 mmHg 48%
    15:00 +12°C° 0 mm 8 mps 770 mmHg 52%
    16:00 +11°C° 0 mm 7 mps 771 mmHg 56%
    17:00 +10°C° 0 mm 7 mps 771 mmHg 61%
    18:00 +9°C° 0 mm 7 mps 771 mmHg 65%
    19:00 +9°C° 0 mm 7 mps 772 mmHg 68%
    20:00 +8°C° 0 mm 7 mps 772 mmHg 72%
    21:00 +8°C° 0 mm 7 mps 772 mmHg 75%
    22:00 +8°C° 0 mm 7 mps 772 mmHg 77%
    23:00 +8°C° 0 mm 7 mps 772 mmHg 80%

    27 January, Saturday

    Time Temperature Precipitation Wind Pressure Humidity
    00:00 +6°C° 0 mm 7 mps 772 mmHg 80%
    01:00 +7°C° 0 mm 6 mps 772 mmHg 80%
    02:00 +7°C° 0 mm 6 mps 772 mmHg 81%
    03:00 +7°C° 0 mm 6 mps 771 mmHg 81%
    04:00 +5°C° 0 mm 6 mps 771 mmHg 81%
    05:00 +5°C° 0 mm 6 mps 771 mmHg 82%
    06:00 +5°C° 0 mm 6 mps 771 mmHg 79%
    07:00 +6°C° 0 mm 7 mps 772 mmHg 76%
    08:00 +6°C° 0 mm 7 mps 772 mmHg 74%
    09:00 +9°C° 0 mm 7 mps 772 mmHg 66%
    10:00 +10°C° 0 mm 6 mps 772 mmHg 58%
    11:00 +13°C° 0 mm 6 mps 772 mmHg 50%
    12:00 +14°C° 0 mm 6 mps 771 mmHg 48%
    13:00 +14°C° 0 mm 6 mps 771 mmHg 46%
    14:00 +15°C° 0 mm 6 mps 770 mmHg 44%
    15:00 +14°C° 0 mm 6 mps 770 mmHg 49%
    16:00 +11°C° 0 mm 6 mps 770 mmHg 54%
    17:00 +10°C° 0 mm 6 mps 770 mmHg 59%
    18:00 +9°C° 0 mm 6 mps 770 mmHg 63%
    19:00 +9°C° 0 mm 6 mps 770 mmHg 67%
    20:00 +8°C° 0 mm 6 mps 770 mmHg 70%
    21:00 +8°C° 0 mm 6 mps 770 mmHg 74%
    22:00 +8°C° 0 mm 6 mps 769 mmHg 77%
    23:00 +8°C° 0 mm 6 mps 769 mmHg 80%
    Show more